Regional Weather Roundup
Issued by NWS

Home | Current Version | Previous Version | Text Only | Print | Product List | Glossary Off
Versions: 1 2 3 4 5 6 7 8 9 10 11 12 13 14 15 16 17 18 19 20 21 22 23 24 25 26 27 28 29 30 31 32 33 34 35 36 37 38 39 40 41 42 43 44 45 46 47 48 49 50

000
ASUS45 KTFX 301010
RWRMT
MONTANA REGIONAL WEATHER ROUNDUP
NATIONAL WEATHER SERVICE GREAT FALLS MT
400 AM MDT TUE JUN 30 2015

NOTE: "FAIR" INDICATES FEW OR NO CLOUDS BELOW 12000 FEET WITH NO
SIGNIFICANT WEATHER AND/OR OBSTRUCTIONS TO VISIBILITY.

MTZ001>007-043-301100-
WEST OF THE DIVIDE

CITY           SKY/WX    TMP DP  RH WIND       PRES   REMARKS
KALISPELL      SUNNY     62  54  74 W3        30.00R
MISSOULA       PTCLDY    67  62  84 SE8       30.07R
BUTTE          LGT RAIN  59  56  89 SE6       30.22F
MULLAN PASS    CLEAR     63  51  65 NW5       30.21S
DEER LODGE       N/A     63  59  88 W5        30.17F
EUREKA           N/A     57  57 100 CALM      30.04R
HAMILTON         N/A     68  61  77 S12       30.08R
PLAINS           N/A     63  55  75 CALM      30.01R
RONAN            N/A     64  58  81 CALM      30.06S
$$

MTZ008-052>055-301100-
SOUTHWEST MONTANA

CITY           SKY/WX    TMP DP  RH WIND       PRES   REMARKS
BOZEMAN        PTCLDY    57  53  86 SE6       30.12R
DILLON         MOCLDY    59  56  89 NE7       30.18R
W YELLOWSTONE  CLOUDY    57  52  82 N6        30.27F
THREE FORKS      N/A     60  34  37 CALM      30.12R
TWIN BRIDGES     N/A     64  55  72 NE6       30.15R
$$

MTZ009-010-012-014-046-048-049-054-301100-
EAST SLOPES AND CENTRAL MONTANA

CITY           SKY/WX    TMP DP  RH WIND       PRES   REMARKS
CUT BANK       PTCLDY    58  55  90 SW8       29.99S
GREAT FALLS    PTCLDY    68  58  70 SW7       29.99S
MALMSTROM AFB  MOCLDY    68  59  73 SW13      29.98S
HELENA         LGT RAIN  68  59  73 SE6       30.06F
CONRAD           N/A     63  63 100 W5        30.02R
$$

MTZ011-013-016-021-045-047-050-051-301100-
NORTH CENTRAL MONTANA

CITY           SKY/WX    TMP DP  RH WIND       PRES   REMARKS
HAVRE          PTCLDY    64  49  57 E3        29.90F HAZE
CHINOOK          N/A     68  46  45 E6        29.91F
FORT BENTON      N/A     68  61  77 SW7       29.94R
$$

MTZ017>020-022>027-061-062-301100-
NORTHEAST MONTANA

CITY           SKY/WX    TMP DP  RH WIND       PRES   REMARKS
JORDAN           N/A     69  48  47 NE5       29.94F
SIDNEY         CLOUDY    70  57  64 N6        29.93S
WOLF POINT     CLOUDY    67  52  58 NE6       29.93F HAZE
MALTA            N/A     68  44  41 CALM      29.90F
PLENTYWOOD       N/A     64  54  68 W3        29.97R
POPLAR           N/A     66  54  63 N7        29.93F
SCOBEY           N/A     62  50  65 NE2       29.96F
$$

MTZ028>42-056>058-301100-
SOUTHCENTRAL AND SOUTHEAST MONTANA

CITY           SKY/WX    TMP DP  RH WIND       PRES   REMARKS
BAKER          CLOUDY    70  60  70 E5        29.96S
BILLINGS       MOCLDY    69  57  65 CALM      30.02R
LIVINGSTON     PTCLDY    61  56  83 NW16      30.09S
MILES CITY     CLOUDY    73  59  61 NE9       29.90F
BIG TIMBER       N/A     64  55  72 SW7       30.07S
EKALAKA          N/A     66  54  65 W2        29.97F
FORSYTH          N/A     73  55  53 NW3       29.92S
LAUREL           N/A     67  55  65 CALM      30.00S
ROUNDUP          N/A     70  57  63 S3        29.92R
$$

REGIONAL REPORTS...DAKOTAS

CITY           SKY/WX    TMP DP  RH WIND       PRES   REMARKS
WILLISTON      CLOUDY    70  59  68 NE6       29.94S HAZE
MINOT          CLOUDY    65  61  87 E6        29.93F
DICKINSON      CLOUDY    68  60  75 NE7       29.94S
BEACH          FAIR      66  63  88 E7        29.95S
CROSBY         FAIR      63  63 100 N5        29.96S FOG
BISMARCK       CLOUDY    68  64  87 NE9       29.95R
GRAND FORKS    PTCLDY    54  53  97 NW5       29.94R FOG
FARGO          PTCLDY    58  55  90 NE5       29.93R FOG
BUFFALO SD       N/A     64  57  78 W8        29.89R
RAPID CITY     MOCLDY    69  55  60 W3        29.96F
$$

REGIONAL REPORTS...WYOMING/IDAHO/WASHINGTON

CITY           SKY/WX    TMP DP  RH WIND       PRES   REMARKS
GILLETTE       CLOUDY    67  54  63 CALM      30.05F
SHERIDAN       CLOUDY    66  56  70 CALM      30.00F
BUFFALO WY     MOCLDY    71  48  43 S8        30.08F
CODY           CLOUDY    73  52  46 W8        30.11S
YELLOWSTONE LA   N/A     56  49  77 CALM      30.40R
IDAHO FALLS    MOCLDY    66  56  70 SE9       30.13F
SALMON         PTCLDY    64  57  77 CALM      30.11F
BOISE          PTCLDY    80  55  42 W3        29.97R
SPOKANE        PTCLDY    71  56  58 NW3       30.01R
$$

REGIONAL REPORTS...ALBERTA

CITY           SKY/WX    TMP DP  RH WIND       PRES   REMARKS
EDMONTON       CLOUDY    59  54  82 SE3       29.97S
CALGARY        MOCLDY    61  59  94 NW3       29.94F
LETHBRIDGE     CLEAR     57  57 100 W5        29.92F
MEDICINE HAT   MOCLDY    59  55  88 NE12      29.86F FOG
WATERTON GATE    N/A     55  48  76 NE3         N/A
CARDSTON         N/A     59  55  88 SW5         N/A
MILK RIVER       N/A     59  57  94 S5          N/A
ONEFOUR          N/A     61  43  51 N9          N/A
$$

REGIONAL REPORTS...SASKATCHEWAN

CITY           SKY/WX    TMP DP  RH WIND       PRES   REMARKS
SWIFT CURRENT  MOCLDY    61  54  77 E12       29.94F HAZE
REGINA         LGT RAIN  61  59  94 NW7       29.99R SMOKE
SASKATOON      CLOUDY    61  57  88 VRB2      29.98F SMOKE
CYPRESS HILLS    N/A     59  37  44 S10         N/A
VAL MARIE        N/A     54  48  82 E3          N/A
ROCKGLEN         N/A     61  48  63 NE3         N/A
ASSINIBOIA       N/A     61  61 100 NE6         N/A
$$



USA.gov is the U.S. government's official web portal to all federal, state and local government web resources and services.